Weather History for KHQM - May, 2014

Change the Weather History Date:

Sunday, May 11, 2014

  Actual Average Record
Temperature  
Mean Temperature 51 °F 52 °F  
Max Temperature 62 °F 59 °F 86 °F (1971)
Min Temperature 40 °F 46 °F 34 °F (1959)
Degree Days  
Heating Degree Days 14 13  
Month to date heating degree days 125 148  
Cooling Degree Days 0 0  
Month to date cooling degree days 4 0  
Year to date cooling degree days 8 0  
Moisture  
Dew Point 46 °F    
Average Humidity 80    
Maximum Humidity 100    
Minimum Humidity 60    
Precipitation  
Precipitation 0.00 in 0.10 in 0.58 in (2011)
Month to date precipitation 4.00 1.32  
Year to date precipitation 38.94 30.95  
Sea Level Pressure  
Sea Level Pressure 30.32 in    
Wind  
Wind Speed 6 mph (SSW)    
Max Wind Speed 17 mph    
Max Gust Speed 22 mph    
Visibility 10 miles    
Events      
T = Trace of Precipitation, MM = Missing Value Source: NWS Daily Summary

Daily Weather History Graph

Daily Weather History Graph

Search for Another Location

Airport or City:

Trip Planner

Search our weather history database for the weather conditions in past years. The results will help you decide how hot, cold, wet, or windy it might be!

Date:

Astronomy

May. 11, 2014 Rise Set
Actual Time 5:45 AM PDT 8:39 PM PDT
Civil Twilight 5:10 AM PDT 9:15 PM PDT
Nautical Twilight 4:24 AM PDT 10:00 PM PDT
Astronomical Twilight 3:30 AM PDT 10:55 PM PDT
Moon 5:29 PM PDT (5/11) 4:07 AM PDT (5/11)
Length of Visible Light 16h 05m
Length of Day
14h 54m
Waxing Gibbous, 90% of the Moon is Illuminated
May 11
Waxing Gibbous
May 14
Full
May 21
Last Quarter
May 28
New
Jun 5
First Quarter

Hourly Weather History & Observations

Time (PDT) Temp. Windchill Dew Point Humidity Pressure Visibility Wind Dir Wind Speed Gust Speed Precip Events Conditions
12:53 AM 46.9 °F - 45.0 °F 93% 30.32 in 10.0 mi Calm Calm - N/A   Scattered Clouds
1:53 AM 45.0 °F 42.6 °F 44.1 °F 97% 30.32 in 9.0 mi ENE 4.6 mph - N/A   Clear
2:53 AM 43.0 °F - 42.1 °F 97% 30.32 in 10.0 mi Calm Calm - N/A   Clear
3:53 AM 43.0 °F 40.3 °F 42.1 °F 97% 30.32 in 10.0 mi NE 4.6 mph - N/A   Clear
4:53 AM 39.9 °F 36.7 °F 39.9 °F 100% 30.32 in 9.0 mi ENE 4.6 mph - N/A   Clear
5:53 AM 39.9 °F 37.8 °F 39.9 °F 100% 30.33 in 8.0 mi ENE 3.5 mph - N/A   Clear
6:53 AM 43.0 °F 41.3 °F 42.1 °F 97% 30.33 in 8.0 mi ENE 3.5 mph - N/A   Clear
7:53 AM 46.9 °F - 45.0 °F 93% 30.35 in 9.0 mi East 3.5 mph - N/A   Clear
8:53 AM 50.0 °F - 46.9 °F 89% 30.35 in 7.0 mi ESE 3.5 mph - N/A   Clear
9:53 AM 52.0 °F - 48.0 °F 86% 30.36 in 8.0 mi South 4.6 mph - N/A   Partly Cloudy
10:53 AM 53.6 °F - 48.2 °F 82% 30.34 in 10.0 mi South 5.8 mph - N/A   Clear
11:53 AM 57.9 °F - 46.9 °F 67% 30.35 in 10.0 mi SSW 6.9 mph - N/A   Clear
12:53 PM 59.0 °F - 46.9 °F 64% 30.34 in 10.0 mi WSW 10.4 mph - N/A   Overcast
1:53 PM 60.1 °F - 46.9 °F 62% 30.33 in 10.0 mi WSW 10.4 mph - N/A   Overcast
2:53 PM 61.0 °F - 48.0 °F 62% 30.33 in 10.0 mi WSW 16.1 mph - N/A   Mostly Cloudy
3:53 PM 61.0 °F - 48.9 °F 64% 30.31 in 10.0 mi WSW 15.0 mph - N/A   Clear
4:53 PM 62.1 °F - 48.0 °F 60% 30.29 in 10.0 mi West 11.5 mph - N/A   Clear
5:53 PM 61.0 °F - 46.9 °F 60% 30.28 in 10.0 mi West 11.5 mph - N/A   Clear
6:53 PM 60.1 °F - 48.0 °F 64% 30.28 in 10.0 mi West 8.1 mph - N/A   Clear
7:53 PM 57.9 °F - 46.9 °F 67% 30.29 in 10.0 mi WNW 4.6 mph - N/A   Clear
8:53 PM 53.6 °F - 46.4 °F 77% 30.28 in 10.0 mi WSW 3.5 mph - N/A   Clear
9:53 PM 53.1 °F - 46.0 °F 77% 30.31 in 10.0 mi Calm Calm - N/A   Clear
10:53 PM 51.1 °F - 46.0 °F 83% 30.31 in 10.0 mi East 3.5 mph - N/A   Clear
11:53 PM 50.0 °F - 46.0 °F 86% 30.33 in 10.0 mi Calm Calm - N/A   Clear